Regional Weather Roundup
Issued by NWS Cleveland, OH

Home | Current Version | Previous Version | Text Only | Print | Product List | Glossary Off
Versions: 1 2 3 4 5 6 7 8 9 10 11 12 13 14 15 16 17 18 19 20 21 22 23 24 25 26 27 28 29 30 31 32 33 34 35 36 37 38 39 40 41 42 43 44 45 46 47 48 49 50

000
ASUS41 KCLE 241812
RWRCLE
OHIO REGIONAL WEATHER ROUNDUP
NATIONAL WEATHER SERVICE WILMINGTON, OH
200 PM EDT SAT JUN 24 2017

NOTE: "FAIR" INDICATES FEW OR NO CLOUDS BELOW 12,000 FEET WITH NO
SIGNIFICANT WEATHER AND/OR OBSTRUCTIONS TO VISIBILITY.

OHZ001>008-015>018-024>027-034-035-043-044-241900-
   NORTHWEST OHIO

CITY           SKY/WX    TMP DP  RH WIND       PRES   REMARKS
DEFIANCE       FAIR      75  55  49 W8G17     29.94R
FINDLAY        FAIR      77  54  44 W15       29.94R
TOLEDO EXPRESS FAIR      76  54  46 W17       29.91S
TOLEDO EXEC    FAIR      77  55  46 W13       29.92R
LIMA           FAIR      75  56  51 W18G24    29.96S
$$

OHZ009>014-019>023-028>033-038-089-241900-
   NORTHEAST OHIO

CITY           SKY/WX    TMP DP  RH WIND       PRES   REMARKS
CLE-HOPKINS    PTSUNNY   79  58  48 W14       29.91R
CLE-LAKEFRONT  FAIR      74  60  61 W14       29.89R
CUY CO. ARPT   MOSUNNY   75  57  53 NW21      29.91R
LORAIN-ELYRIA  FAIR      76  52  43 NW16G25   29.91R
ASHTABULA      FAIR      74  57  55 W17G25    29.89R
AKRON-CANTON   FAIR      78  53  41 W17G25    29.91S
WOOSTER        FAIR      74  56  53 W16       29.93R
MANSFIELD      FAIR      75  55  49 W13G20    29.95R
YOUNGSTOWN     PTSUNNY   75  56  51 W16G24    29.89S
$$

OHZ042-051>053-060>062-070>072-077>081-241900-
  SOUTHWEST OHIO

CITY           SKY/WX    TMP DP  RH WIND       PRES   REMARKS
CINC-COVINGTON FAIR      76  58  53 W9        30.01S
CINC-LUNKEN    FAIR      78  61  55 SW14      30.00S
HAMILTON       PTSUNNY   76  59  55 W8G18     30.00S
DAYTON         PTSUNNY   73  55  53 W15       30.00R
WRIGHT-PAT AFB FAIR      76  57  51 W10       29.98S
DAYTON GENERAL FAIR      75  56  51 SW12      29.99S
WILMINGTON     FAIR      74  60  61 W10       29.99S
$$

OHZ036-037-039>041-045>050-054>059-063>069-073>076-082>088-241900-
  CENTRAL AND SOUTHEAST OHIO

CITY           SKY/WX    TMP DP  RH WIND       PRES   REMARKS
COLUMBUS       PTSUNNY   78  59  51 W14       29.95R
OSU AIRPORT    PTSUNNY   76  59  55 W16       29.96S
BOLTON FIELD   NOT AVBL
RICKENBACK AFB FAIR      76  59  55 W15G21    29.96S
NEWARK         FAIR      78  54  43 W13G22    29.95R
MARION         FAIR      75  54  47 W15       29.96R
LANCASTER      FAIR      76  60  57 W13G18    29.97R
ZANESVILLE     PTSUNNY   76  58  53 SW13      29.94S
NEW PHILLY     FAIR      78  59  51 W12G17    29.93R
$$




USA.gov is the U.S. government's official web portal to all federal, state and local government web resources and services.